Date,TemperatureHighF,TemperatureAvgF,TemperatureLowF,DewpointHighF,DewpointAvgF,DewpointLowF,HumidityHigh,HumidityAvg,HumidityLow,PressureMaxIn,PressureMinIn,WindSpeedMaxMPH,WindSpeedAvgMPH,GustSpeedMaxMPH,PrecipitationSumIn
2013-1-1,53,39,28,26,20,12,72,49,23,30.11,29.99,12,4,0,0.00
2013-1-2,52,37,27,16,13,9,59,39,20,30.11,29.94,14,7,0,0.00
2013-1-3,35,31,28,28,23,13,84,72,43,30.21,30.03,14,7,0,0.00
2013-1-4,40,32,28,30,25,22,84,76,66,30.23,30.13,9,3,0,0.10
2013-1-5,41,30,23,29,24,19,87,77,60,30.27,30.16,10,3,0,0.02
2013-1-6,52,36,22,31,24,18,86,64,35,30.29,29.98,9,4,0,0.01
2013-1-7,59,45,34,35,30,26,71,58,38,29.96,29.69,11,7,0,0.00
2013-1-8,62,48,38,35,29,20,76,51,25,29.92,29.68,8,4,0,0.00
2013-1-9,59,46,37,28,24,15,53,42,25,30.14,29.93,14,6,0,0.00
2013-1-10,62,44,30,36,28,21,72,55,33,29.95,29.74,9,3,0,0.00
2013-1-11,55,46,32,36,25,12,81,46,27,29.74,29.64,14,5,0,0.00
2013-1-12,45,36,28,13,7,0,49,31,17,29.89,29.68,23,7,0,0.00
2013-1-13,45,32,18,13,4,-1,53,32,14,29.98,29.78,9,3,0,0.00
2013-1-14,46,32,23,22,10,-3,72,44,20,29.90,29.79,10,4,0,0.00
2013-1-15,42,29,23,13,4,-14,58,37,10,30.19,29.88,12,6,0,0.00
2013-1-16,51,32,17,7,1,-5,43,27,14,30.29,30.17,7,1,0,0.00
2013-1-17,59,42,24,23,14,4,49,33,17,30.38,30.21,13,6,0,0.00
2013-1-18,67,46,29,26,19,13,64,38,12,30.25,30.06,9,4,0,0.00
2013-1-19,68,46,29,23,18,13,55,35,14,30.20,30.06,8,4,0,0.00
2013-1-20,72,48,31,16,11,1,46,27,7,30.15,29.97,10,3,0,0.00
2013-1-21,72,50,37,13,7,-8,31,20,4,30.11,29.97,14,6,0,0.00
2013-1-22,74,52,39,16,9,2,32,20,6,30.15,30.03,10,4,0,0.00
2013-1-23,76,55,34,21,13,0,39,23,6,30.24,30.09,6,2,0,0.00
2013-1-24,76,57,39,32,23,16,39,28,13,30.17,30.02,9,3,0,0.00
2013-1-25,69,56,48,44,38,32,61,52,39,30.14,29.99,6,1,0,0.00
2013-1-26,68,57,48,47,43,38,70,59,42,29.99,29.81,10,3,0,0.00
2013-1-27,68,57,49,48,44,39,82,63,41,29.93,29.80,14,3,0,0.00
2013-1-28,68,56,41,42,36,32,83,50,27,29.84,29.66,18,6,0,0.00
2013-1-29,50,41,37,35,21,11,65,46,26,29.88,29.66,34,14,0,0.00
2013-1-30,54,42,32,20,12,0,54,32,11,30.12,29.88,18,6,0,0.00
2013-1-31,64,44,26,20,16,11,53,35,16,30.16,30.04,6,2,0,0.00
2013-2-1,68,49,31,19,15,11,48,29,11,30.14,30.00,9,3,0,0.00
2013-2-2,73,53,36,19,13,6,39,23,8,30.23,30.08,12,4,0,0.00
2013-2-3,68,54,42,32,17,12,43,25,13,30.14,29.81,8,3,0,0.00
2013-2-4,68,54,48,35,31,29,53,43,28,29.92,29.79,10,3,0,0.00
2013-2-5,74,56,39,32,28,24,64,38,17,29.93,29.78,11,2,0,0.00
2013-2-6,71,56,42,32,28,22,55,37,17,29.86,29.72,14,4,0,0.00
2013-2-7,62,49,42,34,28,18,59,44,20,29.97,29.84,8,4,0,0.00
2013-2-8,71,56,43,31,25,14,49,32,12,29.96,29.66,17,6,0,0.00
2013-2-9,65,51,42,26,18,6,43,28,10,29.80,29.56,30,9,0,0.00
2013-2-10,59,45,35,20,13,6,45,29,13,29.87,29.74,14,4,0,0.00
2013-2-11,67,48,29,29,10,2,57,24,8,29.86,29.69,13,4,0,0.00
2013-2-12,56,43,34,32,14,-4,75,37,9,29.99,29.81,14,7,0,0.00
2013-2-13,58,44,26,14,8,4,44,25,12,30.05,29.89,12,4,0,0.00
2013-2-14,66,48,28,15,11,6,43,24,13,30.00,29.84,11,3,0,0.00
2013-2-15,64,49,37,30,22,11,58,36,23,30.21,29.99,12,4,0,0.00
2013-2-16,68,51,30,24,13,6,62,26,9,30.30,30.00,5,1,0,0.00
2013-2-17,73,56,34,13,0,-35,35,15,1,29.98,29.65,18,5,0,0.00
2013-2-18,68,57,44,11,-1,-37,22,11,1,29.92,29.72,16,6,0,0.00
2013-2-19,59,49,41,44,22,-1,87,44,13,29.89,29.67,11,4,0,0.33
2013-2-20,62,47,36,42,32,19,87,62,20,29.66,29.38,24,8,0,0.00
2013-2-21,53,41,31,25,22,19,68,49,28,29.82,29.63,22,10,0,0.00
2013-2-22,58,45,32,27,22,18,67,43,21,29.91,29.77,19,6,0,0.00
2013-2-23,65,49,31,23,19,12,56,32,16,29.94,29.61,8,4,0,0.00
2013-2-24,64,48,35,23,16,4,46,30,11,29.74,29.41,28,10,0,0.00
2013-2-25,56,43,29,16,10,5,46,28,15,29.94,29.75,13,5,0,0.00
2013-2-26,67,52,36,13,-6,-42,33,14,1,29.88,29.64,22,10,0,0.00
2013-2-27,60,49,34,12,0,-41,32,15,1,30.13,29.90,14,6,0,0.00
2013-2-28,64,48,32,19,9,-2,46,24,7,30.18,30.06,10,4,0,0.00
2013-3-1,72,53,36,9,3,-5,27,14,5,30.23,30.09,9,4,0,0.00
2013-3-2,77,60,37,16,11,0,37,16,5,30.27,30.03,7,3,0,0.00
2013-3-3,82,62,39,18,-7,-35,38,14,1,30.04,29.72,17,6,0,0.00
2013-3-4,80,66,50,28,8,-32,22,12,1,29.90,29.60,25,8,0,0.00
2013-3-5,66,54,42,28,24,18,50,33,20,30.20,29.91,18,8,0,0.00
2013-3-6,83,63,47,26,22,17,37,23,10,30.06,29.82,14,5,0,0.00
2013-3-7,84,67,52,26,19,6,34,18,6,29.89,29.74,16,5,0,0.00
2013-3-8,72,63,54,46,37,19,52,38,17,29.84,29.64,18,6,0,0.00
2013-3-9,62,51,43,37,27,18,61,41,19,29.83,29.65,28,11,0,0.00
2013-3-10,62,48,35,31,24,19,69,42,20,30.02,29.82,11,3,0,0.00
2013-3-11,70,53,36,24,17,10,44,26,11,30.06,29.86,18,4,0,0.00
2013-3-12,79,60,39,24,14,4,38,19,6,30.10,29.90,13,5,0,0.00
2013-3-13,81,63,45,24,12,-30,40,19,1,30.22,30.02,9,4,0,0.00
2013-3-14,90,67,47,15,-1,-29,24,11,1,30.17,29.98,9,3,0,0.00
2013-3-15,91,69,48,16,-8,-36,23,8,1,30.02,29.77,8,3,0,0.00
2013-3-16,88,70,53,13,-5,-32,15,7,1,29.79,29.58,17,6,0,0.00
2013-3-17,81,70,57,14,3,-30,16,8,1,29.76,29.57,21,9,0,0.00
2013-3-18,81,67,56,25,9,-30,20,12,1,29.89,29.72,14,6,0,0.00
2013-3-19,82,66,49,18,11,3,23,13,5,29.94,29.75,18,5,0,0.00
2013-3-20,74,62,49,36,29,18,48,31,18,30.08,29.74,18,6,0,0.00
2013-3-21,83,69,52,32,18,-28,39,19,1,29.73,29.51,19,6,0,0.00
2013-3-22,80,68,55,28,20,13,30,17,9,29.66,29.46,21,8,0,0.00
2013-3-23,75,65,52,26,-2,-46,31,13,1,29.81,29.60,29,11,0,0.00
2013-3-24,70,51,34,3,-17,-53,23,8,1,30.01,29.71,14,6,0,0.00
2013-3-25,64,51,37,8,3,-7,22,14,7,30.05,29.77,17,7,0,0.00
2013-3-26,74,56,40,15,9,4,27,17,7,30.09,29.84,14,8,0,0.00
2013-3-27,86,65,49,24,16,-26,28,17,1,29.95,29.80,13,4,0,0.00
2013-3-28,87,70,52,28,21,16,30,17,8,29.98,29.83,12,3,0,0.00
2013-3-29,90,73,55,27,7,-27,25,11,1,29.98,29.82,11,4,0,0.00
2013-3-30,90,72,51,22,6,-26,22,10,1,29.96,29.77,12,4,0,0.00
2013-3-31,89,72,56,25,18,7,26,15,5,29.91,29.76,10,3,0,0.00
2013-4-1,89,72,54,32,9,-31,44,15,1,29.89,29.68,17,5,0,0.00
2013-4-2,85,71,56,23,4,-35,24,10,1,29.79,29.59,14,5,0,0.00
2013-4-3,79,62,44,37,30,-2,63,34,7,29.96,29.75,14,5,0,0.00
2013-4-4,88,68,48,34,18,-29,54,22,1,30.06,29.88,10,3,0,0.00
2013-4-5,88,72,55,26,2,-30,24,10,1,29.92,29.67,13,5,0,0.00
2013-4-6,86,73,59,27,14,-27,23,13,1,29.86,29.66,17,6,0,0.00
2013-4-7,86,74,60,24,15,-27,19,12,1,29.78,29.56,17,7,0,0.00
2013-4-8,88,74,62,26,12,-28,25,11,1,29.62,29.30,23,8,0,0.00
2013-4-9,69,59,51,35,26,14,52,30,12,29.70,29.31,23,9,0,0.00
2013-4-10,70,58,46,31,23,11,49,28,12,29.79,29.65,14,6,0,0.00
2013-4-11,79,61,42,22,14,-2,43,20,4,29.79,29.60,14,5,0,0.00
2013-4-12,88,68,50,19,6,-28,26,12,1,29.74,29.57,8,3,0,0.00
2013-4-13,90,73,58,20,7,-29,19,10,1,29.67,29.52,17,6,0,0.00
2013-4-14,85,72,62,26,16,-27,19,13,1,29.65,29.48,22,11,0,0.00
2013-4-15,88,74,61,29,10,-28,28,13,1,29.69,29.55,22,9,0,0.00
2013-4-16,89,75,57,27,2,-30,23,9,1,29.73,29.56,14,7,0,0.00
2013-4-17,84,69,56,27,9,-29,23,12,1,29.76,29.48,27,10,0,0.00
2013-4-18,70,58,46,22,1,-42,35,16,1,29.99,29.76,12,6,0,0.00
2013-4-19,76,57,39,-1,-18,-43,15,6,1,30.12,29.84,14,4,0,0.00
2013-4-20,83,67,40,9,-19,-34,23,5,1,29.85,29.63,21,6,0,0.00
2013-4-21,89,72,52,14,-6,-32,16,7,1,29.95,29.75,10,4,0,0.00
2013-4-22,90,73,54,11,-10,-32,17,6,1,29.88,29.62,14,4,0,0.00
2013-4-23,90,74,57,26,-11,-32,31,6,1,29.87,29.60,18,7,0,0.00
2013-4-24,81,60,41,29,25,17,50,29,10,30.06,29.81,19,9,0,0.00
2013-4-25,90,70,54,39,22,-31,37,23,1,29.95,29.69,18,6,0,0.00
2013-4-26,89,73,56,23,-2,-33,25,8,1,29.98,29.79,16,5,0,0.00
2013-4-27,95,74,53,27,3,-31,32,11,1,30.01,29.79,10,3,0,0.00
2013-4-28,95,76,58,40,20,-24,36,16,1,29.87,29.67,8,4,0,0.00
2013-4-29,96,77,58,44,7,-32,42,15,1,29.75,29.55,12,4,0,0.00
2013-4-30,98,79,63,10,-11,-30,10,4,1,29.67,29.55,14,4,0,0.00
2013-5-1,94,80,69,17,-7,-32,12,5,1,29.82,29.62,15,6,0,0.00
2013-5-2,70,56,47,36,24,7,50,30,9,30.26,29.82,23,12,0,0.00
2013-5-3,74,55,40,22,11,-7,44,22,4,30.29,29.85,14,6,0,0.00
2013-5-4,93,70,49,13,1,-25,18,9,1,29.84,29.65,13,4,0,0.00
2013-5-5,88,72,58,21,16,9,19,12,8,29.93,29.71,23,7,0,0.00
2013-5-6,87,75,63,39,25,15,34,17,8,29.86,29.73,14,6,0,0.00
2013-5-7,85,72,62,31,24,12,24,17,7,29.90,29.71,14,7,0,0.00
2013-5-8,86,74,61,30,19,-6,27,14,3,29.88,29.73,17,6,0,0.00
2013-5-9,86,75,61,27,14,-26,24,12,1,29.86,29.73,22,6,0,0.00
2013-5-10,89,68,55,49,36,23,81,35,9,30.03,29.79,21,6,0,0.41
2013-5-11,80,58,50,48,45,42,75,63,32,30.12,30.00,11,6,0,0.22
2013-5-12,80,74,66,42,36,32,38,25,20,30.13,29.94,13,7,0,0.00
2013-5-13,86,72,56,40,34,28,46,26,13,30.12,29.91,12,5,0,0.00
2013-5-14,87,73,61,45,41,35,47,33,16,29.98,29.76,13,5,0,0.00
2013-5-15,95,79,62,44,36,30,42,23,13,29.86,29.66,23,7,0,0.00
2013-5-16,96,83,69,35,31,27,26,16,10,29.84,29.65,18,6,0,0.00
2013-5-17,96,81,66,33,30,23,27,16,10,29.79,29.65,13,4,0,0.00
2013-5-18,91,81,70,35,26,19,20,14,8,29.83,29.63,16,8,0,0.00
2013-5-19,91,79,66,33,26,21,23,15,9,29.80,29.58,21,7,0,0.00
2013-5-20,91,80,63,35,29,22,29,16,9,29.77,29.56,22,7,0,0.00
2013-5-21,92,76,61,35,27,20,31,17,9,29.85,29.67,11,5,0,0.00
2013-5-22,95,80,61,28,23,18,20,13,8,29.77,29.60,13,3,0,0.00
2013-5-23,98,82,65,51,33,20,50,19,10,29.81,29.60,21,5,0,0.00
2013-5-24,99,81,65,52,48,37,60,35,16,29.89,29.70,14,6,0,0.00
2013-5-25,100,84,70,56,44,26,57,31,8,29.87,29.69,11,4,0,0.00
2013-5-26,97,84,64,51,35,15,51,21,8,29.89,29.71,11,5,0,0.00
2013-5-27,97,83,65,28,21,14,17,11,6,29.80,29.62,14,4,0,0.00
2013-5-28,95,83,68,28,21,13,16,10,6,29.65,29.46,21,7,0,0.00
2013-5-29,91,81,71,35,28,14,22,15,8,29.64,29.50,23,9,0,0.00
2013-5-30,95,83,71,43,36,28,26,19,13,29.75,29.59,18,7,0,0.00
2013-5-31,98,86,68,41,35,28,28,17,12,29.79,29.62,16,6,0,0.00
2013-6-1,99,88,72,44,30,19,28,14,8,29.82,29.68,21,8,0,0.00
2013-6-2,98,81,70,60,51,44,61,37,24,29.89,29.64,26,11,0,0.00
2013-6-3,102,82,66,57,48,24,73,37,9,29.83,29.64,16,6,0,0.00
2013-6-4,101,87,69,47,38,28,41,20,9,29.81,29.65,16,5,0,0.00
2013-6-5,100,88,69,40,34,25,32,16,8,29.79,29.63,17,4,0,0.00
2013-6-6,93,79,69,50,45,26,47,32,17,29.82,29.69,13,6,0,0.00
2013-6-7,98,80,69,60,54,41,70,44,20,29.85,29.63,17,8,0,0.11
2013-6-8,106,84,65,55,46,29,65,33,10,29.75,29.54,24,6,0,0.00
2013-6-9,100,89,77,55,46,28,39,23,11,29.79,29.58,13,7,0,0.00
2013-6-10,106,90,75,53,48,38,40,25,14,29.85,29.69,12,6,0,0.00
2013-6-11,110,92,75,50,43,34,35,20,10,29.84,29.64,13,6,0,0.00
2013-6-12,107,92,77,54,45,34,35,21,11,29.85,29.69,15,6,0,0.00
2013-6-13,100,88,76,60,55,46,52,35,17,29.87,29.72,20,10,0,0.00
2013-6-14,97,81,68,61,56,50,68,45,24,29.85,29.68,17,6,0,0.08
2013-6-15,102,86,68,61,54,44,73,38,15,29.87,29.71,9,4,0,0.00
2013-6-16,106,89,74,54,50,46,46,28,15,29.89,29.74,10,5,0,0.00
2013-6-17,105,90,74,59,52,47,47,30,16,29.86,29.70,19,6,0,0.00
2013-6-18,103,86,70,60,55,47,63,38,17,29.89,29.69,15,7,0,0.00
2013-6-19,107,92,79,60,50,38,49,29,11,29.77,29.61,17,7,0,0.00
2013-6-20,104,89,79,54,48,40,42,26,13,29.83,29.67,21,8,0,0.00
2013-6-21,102,88,71,54,50,43,50,29,15,29.86,29.68,16,6,0,0.00
2013-6-22,102,90,77,59,48,31,47,27,12,29.86,29.64,16,6,0,0.00
2013-6-23,103,90,75,53,42,29,45,21,11,29.79,29.62,11,5,0,0.00
2013-6-24,102,95,88,50,44,40,27,18,14,29.82,29.67,12,5,0,0.00
2013-6-25,104,91,77,52,38,24,36,17,11,29.87,29.73,17,5,0,0.00
2013-6-26,107,91,76,31,25,20,16,10,5,29.89,29.76,12,4,0,0.00
2013-6-27,111,92,75,41,26,20,17,10,5,29.90,29.76,7,3,0,0.00
2013-6-28,101,90,78,47,42,38,32,19,12,30.00,29.84,17,5,0,0.00
2013-6-29,104,90,75,49,44,40,32,21,12,29.94,29.77,20,5,0,0.00
2013-6-30,100,88,75,59,49,43,56,27,17,29.90,29.72,19,7,0,0.01
2013-7-1,85,75,66,62,58,51,83,59,35,30.03,29.86,21,9,0,0.03
2013-7-2,90,77,64,63,54,46,86,49,24,30.06,29.83,12,6,0,0.00
2013-7-3,98,81,68,60,53,46,77,43,18,29.95,29.69,16,6,0,0.00
2013-7-4,101,83,69,55,51,46,59,36,18,29.81,29.63,13,4,0,0.00
2013-7-5,102,89,74,55,51,45,48,28,16,29.78,29.58,11,4,0,0.00
2013-7-6,105,90,76,58,54,48,53,32,16,29.76,29.58,11,5,0,0.00
2013-7-7,104,91,79,55,52,46,39,27,18,29.79,29.64,19,7,0,0.00
2013-7-8,98,86,78,56,53,49,43,33,20,29.90,29.77,15,7,0,0.00
2013-7-9,100,89,76,60,56,49,52,35,19,29.96,29.75,20,7,0,0.00
2013-7-10,99,88,76,60,57,53,57,37,24,29.96,29.75,14,8,0,0.00
2013-7-11,100,87,78,62,56,53,51,36,23,29.89,29.74,16,5,0,0.00
2013-7-12,102,88,76,59,54,51,54,33,19,29.86,29.68,12,5,0,0.00
2013-7-13,102,89,75,60,54,44,52,33,20,29.87,29.70,13,5,0,0.00
2013-7-14,104,90,76,62,53,47,57,31,18,29.86,29.62,14,5,0,0.01
2013-7-15,84,75,69,61,58,52,61,55,43,29.93,29.74,16,8,0,0.03
2013-7-16,87,78,67,56,52,48,64,43,26,29.99,29.85,15,8,0,0.00
2013-7-17,76,71,68,63,59,53,82,66,46,30.06,29.97,17,8,0,0.00
2013-7-18,76,68,64,66,64,61,97,86,65,30.05,29.95,12,5,0,0.21
2013-7-19,82,74,66,67,64,62,99,74,51,29.95,29.79,12,6,0,0.04
2013-7-20,88,78,67,66,63,58,92,62,42,29.87,29.70,14,5,0,0.00
2013-7-21,95,81,70,63,60,56,75,51,29,29.85,29.68,12,5,0,0.00
2013-7-22,99,81,72,65,62,56,73,55,27,29.85,29.71,12,6,0,0.00
2013-7-23,96,81,71,64,61,58,69,53,34,29.88,29.70,15,7,0,0.00
2013-7-24,97,82,70,67,63,59,87,58,30,29.92,29.74,18,6,0,0.00
2013-7-25,93,78,65,66,64,61,98,68,38,29.99,29.87,18,6,0,0.64
2013-7-26,97,82,73,68,65,62,83,59,33,29.99,29.89,19,5,0,0.00
2013-7-27,89,76,66,68,65,62,97,72,43,30.04,29.81,11,6,0,0.42
2013-7-28,94,78,68,66,64,59,89,63,36,29.88,29.70,22,4,0,0.00
2013-7-29,100,85,71,65,60,52,79,47,22,29.90,29.79,12,4,0,0.00
2013-7-30,100,86,74,61,58,52,61,41,23,30.00,29.89,14,5,0,0.00
2013-7-31,102,87,75,61,58,52,59,39,21,30.02,29.85,16,4,0,0.00
2013-8-1,98,88,77,63,57,51,61,37,22,29.99,29.80,14,5,0,0.00
2013-8-2,98,87,75,63,59,55,65,41,26,29.89,29.74,9,4,0,0.00
2013-8-3,100,87,78,62,58,54,53,38,24,29.91,29.77,10,4,0,0.00
2013-8-4,103,88,77,61,56,50,53,36,20,29.91,29.74,11,4,0,0.00
2013-8-5,99,88,71,64,56,49,79,36,21,29.90,29.73,14,6,0,0.14
2013-8-6,96,84,73,60,56,50,59,40,23,29.90,29.76,16,7,0,0.00
2013-8-7,92,83,73,59,56,52,58,41,26,29.91,29.75,16,6,0,0.00
2013-8-8,99,86,68,57,51,43,64,34,17,29.87,29.72,12,4,0,0.00
2013-8-9,101,87,70,54,48,44,44,28,16,29.90,29.77,14,4,0,0.00
2013-8-10,89,80,75,63,58,52,62,47,34,30.06,29.90,14,7,0,0.00
2013-8-11,96,81,66,64,58,51,87,50,24,30.03,29.82,16,8,0,0.00
2013-8-12,98,87,74,61,58,55,55,39,25,29.95,29.78,12,5,0,0.00
2013-8-13,98,87,75,62,58,52,59,39,27,29.94,29.79,14,6,0,0.00
2013-8-14,92,80,74,62,57,54,55,45,37,29.94,29.85,13,5,0,0.00
2013-8-15,80,79,77,59,57,55,53,48,43,29.94,29.91,8,5,0,0.00
2013-8-16,99,84,71,62,55,43,72,41,19,29.98,29.83,19,4,0,0.00
2013-8-17,102,88,72,57,50,43,56,30,14,29.97,29.78,17,4,0,0.00
2013-8-18,102,87,74,63,52,47,53,32,18,29.95,29.78,18,5,0,0.20
2013-8-19,100,85,72,57,52,39,56,36,15,29.93,29.77,11,4,0,0.00
2013-8-20,100,86,74,57,51,45,55,32,17,29.89,29.75,11,5,0,0.00
2013-8-21,96,85,73,57,48,34,57,31,17,29.92,29.78,14,6,0,0.00
2013-8-22,97,85,70,56,48,39,52,29,15,29.96,29.77,14,6,0,0.00
2013-8-23,92,81,73,56,54,46,53,41,21,29.92,29.76,19,8,0,0.00
2013-8-24,90,80,70,59,57,54,64,45,30,29.95,29.79,14,6,0,0.00
2013-8-25,95,84,71,59,55,51,65,39,24,30.00,29.85,15,7,0,0.00
2013-8-26,92,84,73,58,54,51,55,38,26,30.02,29.85,17,8,0,0.00
2013-8-27,88,79,73,65,58,53,78,50,34,29.95,29.81,21,7,0,0.04
2013-8-28,82,76,71,66,63,61,80,66,51,29.97,29.84,7,3,0,0.00
2013-8-29,82,73,66,68,66,63,99,78,55,30.06,29.94,11,3,0,0.71
2013-8-30,96,80,66,68,64,59,96,64,31,30.01,29.84,10,2,0,0.00
2013-8-31,104,84,69,65,59,52,84,48,21,29.88,29.72,9,2,0,0.00
2013-9-1,103,87,71,62,53,41,66,35,13,29.83,29.72,11,4,0,0.00
2013-9-2,97,85,73,59,54,48,50,37,24,29.93,29.78,22,7,0,0.00
2013-9-3,95,84,74,60,54,42,61,39,20,29.97,29.80,14,6,0,0.00
2013-9-4,95,83,70,56,52,49,53,35,22,29.99,29.88,14,6,0,0.00
2013-9-5,96,85,73,55,49,40,50,31,17,30.01,29.88,15,7,0,0.00
2013-9-6,94,84,73,56,53,50,52,35,23,30.01,29.81,14,6,0,0.00
2013-9-7,95,84,73,56,53,48,52,35,24,29.93,29.76,16,7,0,0.02
2013-9-8,94,84,72,56,52,46,57,35,22,29.86,29.66,15,7,0,0.00
2013-9-9,89,77,71,65,58,54,65,53,36,29.78,29.67,13,6,0,0.02
2013-9-10,80,70,66,67,65,61,99,85,56,29.87,29.76,13,5,0,0.72
2013-9-11,81,72,67,70,68,66,99,88,60,29.91,29.81,9,4,0,0.23
2013-9-12,70,67,65,68,66,63,99,96,88,29.90,29.82,14,6,0,2.01
2013-9-13,75,68,65,67,66,65,99,92,72,29.88,29.75,15,7,0,0.40
2013-9-14,87,75,65,65,59,54,96,64,33,29.82,29.70,10,6,0,0.00
2013-9-15,88,76,64,61,58,54,83,57,37,29.87,29.75,14,5,0,0.00
2013-9-16,85,76,66,64,60,56,82,59,39,29.98,29.84,14,8,0,0.00
2013-9-17,86,75,68,64,61,57,84,63,43,29.93,29.76,10,7,0,0.00
2013-9-18,88,78,68,62,60,57,79,57,39,29.84,29.67,13,6,0,0.00
2013-9-19,88,76,69,67,63,61,86,65,45,29.80,29.67,21,6,0,0.00
2013-9-20,85,74,64,65,60,54,95,66,36,29.91,29.75,14,5,0,0.00
2013-9-21,82,72,62,60,56,52,83,60,37,29.95,29.77,14,5,0,0.00
2013-9-22,86,74,60,56,53,50,80,50,29,29.78,29.54,11,5,0,0.00
2013-9-23,89,77,68,56,45,36,64,34,18,29.83,29.60,14,5,0,0.00
2013-9-24,91,74,60,42,38,34,48,30,14,29.97,29.80,11,4,0,0.00
2013-9-25,94,77,59,53,46,40,57,35,21,29.81,29.59,11,3,0,0.00
2013-9-26,90,82,68,52,47,40,49,30,20,29.73,29.60,11,4,0,0.00
2013-9-27,89,79,71,60,52,40,64,41,22,29.76,29.59,19,6,0,0.00
2013-9-28,82,69,58,43,29,22,41,24,14,30.02,29.77,11,6,0,0.00
2013-9-29,87,71,52,43,36,28,50,30,16,30.06,29.85,7,3,0,0.00
2013-9-30,91,73,55,42,35,23,52,28,11,29.87,29.72,14,3,0,0.00
2013-10-1,92,76,58,36,28,17,37,20,7,29.84,29.73,15,4,0,0.00
2013-10-2,88,70,61,42,35,27,36,28,18,29.86,29.73,6,2,0,0.00
2013-10-3,87,71,60,42,37,28,51,31,12,29.80,29.64,12,3,0,0.00
2013-10-4,86,73,65,46,39,33,47,31,16,29.80,29.68,14,5,0,0.00
2013-10-5,77,64,53,39,24,17,37,21,14,30.03,29.80,14,7,0,0.00
2013-10-6,84,63,48,32,25,18,40,24,13,30.12,29.98,10,4,0,0.00
2013-10-7,84,66,47,32,29,24,49,28,13,30.11,29.89,8,4,0,0.00
2013-10-8,86,68,52,41,33,21,47,28,16,29.90,29.69,11,3,0,0.00
2013-10-9,86,75,57,42,37,34,44,27,17,29.81,29.66,10,4,0,0.00
2013-10-10,85,73,62,46,39,31,53,31,15,29.76,29.60,21,8,0,0.00
2013-10-11,80,67,55,40,38,34,50,34,22,29.86,29.74,16,4,0,0.00
2013-10-12,82,69,50,43,37,31,56,33,19,29.93,29.79,13,6,0,0.00
2013-10-13,81,71,60,55,47,41,60,42,30,29.94,29.81,8,4,0,0.00
2013-10-14,79,72,65,49,47,45,53,42,34,29.90,29.78,18,5,0,0.00
2013-10-15,72,66,56,55,50,42,61,56,48,29.87,29.76,14,7,0,0.00
2013-10-16,78,63,55,51,40,23,78,48,16,29.93,29.80,11,5,0,0.00
2013-10-17,78,61,45,40,29,22,60,33,14,29.95,29.74,10,3,0,0.00
2013-10-18,79,62,46,33,26,20,52,28,11,29.94,29.75,11,3,0,0.00
2013-10-19,77,58,42,35,31,28,62,39,18,30.06,29.84,11,3,0,0.00
2013-10-20,79,62,42,34,27,17,67,32,11,29.87,29.69,11,3,0,0.00
2013-10-21,73,60,47,37,30,16,50,32,21,30.00,29.75,11,5,0,0.00
2013-10-22,77,61,46,40,36,32,65,42,21,30.10,29.94,7,4,0,0.00
2013-10-23,85,64,47,37,33,30,53,34,16,30.03,29.85,10,4,0,0.00
2013-10-24,83,68,51,43,36,31,46,33,23,30.01,29.83,12,7,0,0.00
2013-10-25,80,69,57,46,41,34,63,38,24,30.03,29.86,17,7,0,0.00
2013-10-26,78,63,51,46,41,29,77,48,17,30.07,29.93,15,7,0,0.00
2013-10-27,81,61,48,44,40,38,67,48,27,30.02,29.73,6,3,0,0.00
2013-10-28,79,62,54,44,41,30,68,49,17,29.83,29.70,9,3,0,0.00
2013-10-29,69,66,62,32,30,28,30,26,22,29.79,29.72,5,2,0,0.00
2013-10-30,71,64,58,51,42,30,59,45,29,29.83,29.67,16,6,0,0.02
2013-10-31,70,59,46,31,21,11,44,25,10,29.95,29.78,15,5,0,0.00
2013-11-1,72,59,43,29,23,14,42,26,17,30.04,29.84,11,4,0,0.00
2013-11-9,64,64,63,38,38,38,40,39,38,29.94,29.94,0,0,0,0.00
2013-11-29,66,51,38,36,33,28,65,51,33,30.16,30.02,6,4,0,0.00
2013-11-30,60,48,40,37,34,32,73,58,42,30.14,30.08,8,6,0,0.00
2013-12-1,48,48,48,35,35,35,61,61,61,30.08,30.05,6,3,0,0.00
2013-12-2,58,55,53,26,20,16,32,25,21,29.75,29.71,6,2,0,0.00
2013-12-3,73,59,45,38,23,18,44,26,15,29.72,29.56,17,6,0,0.00
2013-12-4,71,62,56,45,38,30,60,44,25,29.67,29.55,21,11,0,0.00
2013-12-6,53,43,36,35,31,28,93,66,39,29.97,29.82,8,3,0,0.22
2013-12-24,39,39,39,27,27,27,61,60,60,30.16,30.16,3,2,0,0.00
2013-12-26,44,40,35,25,24,23,62,52,44,30.30,30.26,4,2,0,0.00
2013-12-27,57,42,29,29,24,21,75,53,30,30.37,30.24,11,4,0,0.00
2013-12-28,56,40,27,30,24,19,72,53,37,30.25,29.96,14,5,0,0.00
2013-12-29,53,45,33,27,25,21,60,45,35,30.21,29.95,17,7,0,0.00
2013-12-30,57,41,25,26,22,19,78,49,29,30.31,30.19,6,2,0,0.00
2013-12-31,60,44,31,25,22,18,60,43,24,30.31,30.13,8,2,0,0.00
2014-1-1,65,47,31,26,23,21,71,42,20,30.21,30.05,8,3,0,0.00
2014-1-2,59,47,37,29,26,21,71,46,27,30.37,30.20,15,5,0,0.00